Location: Bonningues
(50.7927°N, 2.0150°E)
Time: 05:35:59
(UTC+00:00)

Helios 1A - Pass Details

Date: 08 August 2020
Orbit: 588 x 599 km, 98.2° (Epoch: 06 September)

Event Time Altitude Azimuth Distance (km) Brightness Sun altitude
Exits shadow 23:49:47 87° 171° (S) 607 2.8 -23.4°
Maximum altitude 23:49:51 90° 257° (WSW) 606 2.9 -23.4°
Drops below altitude 10° 23:54:06 10° 346° (NNW) 1,952 6.6 -23.4°
Sets 23:56:17 0° 346° (NNW) 2,861 7.8 -23.4°
